Change the Weather History Date:

Monday, April 14, 2014

  Actual Average (KFLO) Record (KFLO)
Temperature  
Mean Temperature 68 °F 63 °F  
Max Temperature 75 °F 76 °F 90 °F (2006)
Min Temperature 60 °F 50 °F 32 °F (1950)
Degree Days  
Heating Degree Days 0 4  
Month to date heating degree days 76  
Since 1 July heating degree days 2452  
Cooling Degree Days 2 2  
Month to date cooling degree days 25  
Year to date cooling degree days 49  
Growing Degree Days 18 (Base 50)    
Moisture  
Dew Point 61 °F    
Average Humidity 77    
Maximum Humidity 88    
Minimum Humidity 53    
Precipitation  
Precipitation 0.11 in 0.08 in 1.26 in (1955)
Month to date precipitation 1.22  
Year to date precipitation 10.70  
Sea Level Pressure  
Sea Level Pressure 30.01 in    
Wind  
Wind Speed 8 mph (SSE)    
Max Wind Speed 15 mph    
Max Gust Speed 17 mph    
Visibility 10 miles    
Events      
T = Trace of Precipitation, MM = Missing Value Source: NWS Daily Summary

Daily Weather History Graph

Daily Weather History Graph

Search for Another Location

Airport or City:

Trip Planner

Search our weather history database for the weather conditions in past years. The results will help you decide how hot, cold, wet, or windy it might be!

Date:

Astronomy

Apr. 14, 2014 Rise Set
Actual Time 6:49 AM EDT 7:50 PM EDT
Civil Twilight 6:23 AM EDT 8:16 PM EDT
Nautical Twilight 5:53 AM EDT 8:47 PM EDT
Astronomical Twilight 5:21 AM EDT 9:18 PM EDT
Moon 7:28 PM EDT (4/14) 6:18 AM EDT (4/14)
Length of Visible Light 13h 52m
Length of Day
13h 01m
Full, 100% of the Moon is Illuminated
Apr 14
Full
Apr 15
Full
Apr 22
Last Quarter
Apr 29
New
May 6
First Quarter

Hourly Weather History & Observations

Time (EDT) Temp. Dew Point Humidity Pressure Visibility Wind Dir Wind Speed Gust Speed Precip Events Conditions
12:15 AM 64.4 °F 57.2 °F 77% 30.13 in 10.0 mi SSE 8.1 mph - N/A   Clear
12:35 AM 64.4 °F 57.2 °F 77% 30.13 in 10.0 mi SSE 5.8 mph - N/A   Clear
12:55 AM 64.4 °F 57.2 °F 77% 30.13 in 10.0 mi SSE 5.8 mph - N/A   Clear
1:15 AM 64.4 °F 57.2 °F 77% 30.12 in 10.0 mi SSE 5.8 mph - N/A   Clear
1:35 AM 64.4 °F 57.2 °F 77% 30.11 in 10.0 mi SE 6.9 mph - N/A   Clear
1:55 AM 64.4 °F 57.2 °F 77% 30.10 in 10.0 mi SSE 6.9 mph - N/A   Clear
2:15 AM 64.4 °F 59.0 °F 83% 30.10 in 10.0 mi SE 5.8 mph - N/A   Scattered Clouds
2:35 AM 64.4 °F 57.2 °F 77% 30.09 in 10.0 mi SE 5.8 mph - N/A   Mostly Cloudy
2:55 AM 64.4 °F 59.0 °F 83% 30.09 in 10.0 mi SSE 6.9 mph - N/A   Mostly Cloudy
3:15 AM 64.4 °F 59.0 °F 83% 30.08 in 10.0 mi SE 6.9 mph - N/A   Scattered Clouds
3:35 AM 64.4 °F 57.2 °F 77% 30.08 in 10.0 mi SSE 6.9 mph - N/A   Clear
3:55 AM 62.6 °F 57.2 °F 82% 30.08 in 10.0 mi SSE 6.9 mph - N/A   Clear
4:15 AM 62.6 °F 57.2 °F 82% 30.07 in 10.0 mi SSE 5.8 mph - N/A   Clear
4:35 AM 62.6 °F 57.2 °F 82% 30.07 in 10.0 mi SSE 5.8 mph - N/A   Clear
4:55 AM 62.6 °F 57.2 °F 82% 30.07 in 10.0 mi SSE 5.8 mph - N/A   Clear
5:15 AM 62.6 °F 57.2 °F 82% 30.07 in 10.0 mi SSE 5.8 mph - N/A   Clear
5:35 AM 62.6 °F 57.2 °F 82% 30.06 in 10.0 mi SE 5.8 mph - N/A   Clear
5:55 AM 60.8 °F 57.2 °F 88% 30.06 in 10.0 mi SSE 4.6 mph - N/A   Clear
6:15 AM 60.8 °F 57.2 °F 88% 30.06 in 10.0 mi SE 3.5 mph - N/A   Clear
6:35 AM 60.8 °F 57.2 °F 88% 30.06 in 10.0 mi ESE 4.6 mph - N/A   Clear
6:55 AM 60.8 °F 57.2 °F 88% 30.06 in 10.0 mi ESE 5.8 mph - N/A   Clear
7:15 AM 60.8 °F 57.2 °F 88% 30.06 in 10.0 mi ESE 5.8 mph - N/A   Clear
7:35 AM 60.8 °F 57.2 °F 88% 30.06 in 10.0 mi ESE 4.6 mph - N/A   Clear
7:55 AM 62.6 °F 57.2 °F 82% 30.06 in 10.0 mi SE 5.8 mph - N/A   Clear
8:15 AM 64.4 °F 57.2 °F 77% 30.06 in 10.0 mi SE 6.9 mph - N/A   Clear
8:35 AM 64.4 °F 59.0 °F 83% 30.06 in 10.0 mi SE 10.4 mph - N/A   Clear
8:55 AM 66.2 °F 59.0 °F 78% 30.06 in 10.0 mi SSE 9.2 mph - N/A   Clear
9:15 AM 66.2 °F 60.8 °F 83% 30.06 in 10.0 mi SE 8.1 mph - N/A   Clear
9:35 AM 69.8 °F 60.8 °F 73% 30.06 in 10.0 mi SSE 9.2 mph - N/A   Clear
9:55 AM 69.8 °F 60.8 °F 73% 30.07 in 10.0 mi SSE 10.4 mph - N/A   Clear
10:15 AM 71.6 °F 60.8 °F 69% 30.07 in 10.0 mi SSE 13.8 mph - N/A   Partly Cloudy
10:35 AM 71.6 °F 60.8 °F 69% 30.08 in 10.0 mi South 9.2 mph - N/A   Partly Cloudy
10:55 AM 71.6 °F 60.8 °F 69% 30.08 in 10.0 mi South 13.8 mph - N/A   Partly Cloudy
11:15 AM 71.6 °F 60.8 °F 69% 30.07 in 10.0 mi SSE 11.5 mph - N/A   Mostly Cloudy
11:35 AM 73.4 °F 60.8 °F 65% 30.07 in 10.0 mi South 11.5 mph - N/A   Partly Cloudy
11:55 AM 73.4 °F 60.8 °F 65% 30.07 in 10.0 mi South 13.8 mph - N/A   Mostly Cloudy
12:15 PM 73.4 °F 60.8 °F 65% 30.06 in 10.0 mi South 9.2 mph 17.3 mph N/A   Scattered Clouds
12:35 PM 73.4 °F 60.8 °F 65% 30.05 in 10.0 mi South 12.7 mph - N/A   Scattered Clouds
12:55 PM 75.2 °F 60.8 °F 61% 30.04 in 10.0 mi SSE 11.5 mph - N/A   Mostly Cloudy
1:15 PM 75.2 °F 60.8 °F 61% 30.03 in 10.0 mi South 9.2 mph - N/A   Scattered Clouds
1:35 PM 75.2 °F 57.2 °F 53% 30.02 in 10.0 mi South 6.9 mph - N/A   Partly Cloudy
1:55 PM 75.2 °F 57.2 °F 53% 30.01 in 10.0 mi SSW 4.6 mph - N/A   Clear
2:15 PM 75.2 °F 57.2 °F 53% 30.00 in 10.0 mi South 4.6 mph - N/A   Mostly Cloudy
2:35 PM 71.6 °F 62.6 °F 73% 30.00 in 10.0 mi SE 15.0 mph - N/A   Overcast
2:55 PM 69.8 °F 62.6 °F 78% 30.01 in 7.0 mi SSE 13.8 mph - N/A   Overcast
3:15 PM 68.0 °F 64.4 °F 88% 30.00 in 4.0 mi SSW 8.1 mph - 0.07 in   Mostly Cloudy
3:35 PM 69.8 °F 64.4 °F 83% 29.99 in 10.0 mi South 5.8 mph - 0.11 in   Overcast
3:55 PM 69.8 °F 64.4 °F 83% 29.97 in 10.0 mi SE 6.9 mph - 0.11 in   Mostly Cloudy
4:15 PM 71.6 °F 66.2 °F 83% 29.96 in 10.0 mi SSE 6.9 mph - N/A   Mostly Cloudy
4:35 PM 71.6 °F 64.4 °F 78% 29.95 in 10.0 mi SE 10.4 mph - N/A   Mostly Cloudy
4:55 PM 71.6 °F 64.4 °F 78% 29.94 in 10.0 mi SE 10.4 mph - N/A   Scattered Clouds
5:15 PM 73.4 °F 64.4 °F 73% 29.93 in 10.0 mi SE 11.5 mph - N/A   Partly Cloudy
5:35 PM 73.4 °F 64.4 °F 73% 29.93 in 10.0 mi SE 9.2 mph - N/A   Scattered Clouds
5:55 PM 73.4 °F 64.4 °F 73% 29.91 in 10.0 mi SE 9.2 mph - N/A   Scattered Clouds
6:15 PM 73.4 °F 64.4 °F 73% 29.91 in 10.0 mi SE 8.1 mph - N/A   Mostly Cloudy
6:35 PM 73.4 °F 64.4 °F 73% 29.91 in 10.0 mi SSE 11.5 mph - N/A   Mostly Cloudy
6:55 PM 71.6 °F 64.4 °F 78% 29.90 in 10.0 mi SE 10.4 mph - N/A   Partly Cloudy
7:15 PM 71.6 °F 62.6 °F 73% 29.89 in 10.0 mi SE 8.1 mph - N/A   Clear
7:35 PM 71.6 °F 62.6 °F 73% 29.89 in 10.0 mi SE 8.1 mph - N/A   Clear
7:55 PM 69.8 °F 62.6 °F 78% 29.89 in 10.0 mi SE 8.1 mph - N/A   Clear
8:15 PM 69.8 °F 62.6 °F 78% 29.89 in 10.0 mi SE 9.2 mph - N/A   Clear
8:35 PM 69.8 °F 64.4 °F 83% 29.89 in 10.0 mi SE 10.4 mph - N/A   Scattered Clouds
8:55 PM 69.8 °F 64.4 °F 83% 29.88 in 10.0 mi SE 10.4 mph - N/A   Mostly Cloudy
9:15 PM 69.8 °F 64.4 °F 83% 29.89 in 10.0 mi SE 9.2 mph - N/A   Partly Cloudy
9:35 PM 69.8 °F 62.6 °F 78% 29.88 in 10.0 mi SE 9.2 mph - N/A   Clear
9:55 PM 69.8 °F 62.6 °F 78% 29.88 in 10.0 mi SSE 9.2 mph - N/A   Clear
10:15 PM 69.8 °F 62.6 °F 78% 29.88 in 10.0 mi SSE 9.2 mph - N/A   Clear
10:35 PM 69.8 °F 62.6 °F 78% 29.88 in 10.0 mi SSE 9.2 mph - N/A   Clear
10:55 PM 69.8 °F 62.6 °F 78% 29.88 in 10.0 mi SSE 9.2 mph - N/A   Clear
11:15 PM 68.0 °F 62.6 °F 83% 29.87 in 10.0 mi SSE 8.1 mph - N/A   Partly Cloudy
11:35 PM 69.8 °F 62.6 °F 78% 29.85 in 10.0 mi SSE 9.2 mph - N/A   Mostly Cloudy
11:55 PM 69.8 °F 62.6 °F 78% 29.85 in 10.0 mi SSE 9.2 mph 16.1 mph N/A   Overcast